SCP
0 0 0 -0 -0 -0 -0 0 0 0 0 -0 -0 -0 -0 -0 0 0 0 0 0 0 -0 0 0 0 0 0 0 0 0 0 0 0 0 0 0 0 0 0 0 0 0
0 0 0 -0 -0 -0 -0 -0 0 -0 0 0 -0 0 -0 -0 -0 -0 -0 0 -0 -0 -0 0 0 0 0 0 0 0 0 0 0 0 0 0 0 0 0 0 0 0 0
0 0 0 0 -0 -0 -0 -0 -0 -0 -0 -0 -0 -0 -0 -0 -0 0 0 0 0 0 0 0 0 0 0 0 0 0 0 0 0 0 0 0 0 0 0 0 0 0 0
0 0 0 0 0 -0 -0 -0 -0 -0 -0 -0 -0 -0 -0 -0 -0 -0 -0 -0 0 -0 0 0 0 0 0 0 0 0 0 0 0 0 0 0 0 0 0 0 0 0 0
0 0 0 0 0 0 -0 -0 -0 -0 -0 -0 -0 0 0 -0 -0 -0 -0 -0 -0 -0 0 0 0 0 0 0 0 0 0 0 0 0 0 0 0 0 0 0 0 0 0
0 0 0 0 -0 -0 0 0 0 -0 0 0 0 -0 0 -0 -0 -0 -0 -0 -0 -0 -0 -0 0 0 0 0 0 0 0 0 0 0 0 0 0 0 0 0 0 0 0
0 0 0 -0 -0 -0 -0 -0 -0 -0 -0 -0 -0 -0 -0 -0 -0 -0 -0 -0 -0 -0 -0 -0 -0 0 0 0 0 0 0 0 0 0 0 0 0 0 0 0 0 0 0
-0 0 0 0 -0 -0 -0 -0 -0 -0 -0 -0 -0 -0 -0 -0 -0 -0 -0 -0 -0 -0 -0 -0 0 0 0 0 0 0 0 0 0 0 0 0 0 0 0 0 0 0 0
-0 -0 -0 -0 -0 -0 -0 -0 -0 -0 -0 -0 -0 -0 -0 -0 -0 -0 -0 -0 -0 0 0 0 0 0 0 0 0 0 0 0 0 0 0 0 0 0 0 0 0 0 0
0 -0 -0 -0 -0 -0 -0 -0 -0 -0 -0 -0 -0 -0 -0 0 0 0 0 0 0 0 0 0 0 0 0 0 0 0 0 0 0 0 0 0 0 0 0 0 0 0 0
0 -0 -0 -0 -0 -0 -0 -0 -0 -0 -0 -0 -0 0 0 0 0 0 0 0 0 0 0 0 0 0 0 0 0 0 0 0 0 0 0 0 0 0 0 0 0 0 0
0 0 -0 -0 -0 -0 -0 -0 -0 -0 -0 -0 0 0 0 0 0 0 0 0 0 0 0 0 0 0 0 0 0 0 0 0 0 0 0 0 0 0 0 0 0 0 0
0 0 0 0 0 0 0 0 0 0 0 0 0 0 0 0 0 0 0 0 0 0 0 0 0 0 0 0 0 0 0 0 0 0 0 0 0 0 0 0 0 0 0
0 0 0 0 0 0 0 0 0 0 0 0 0 0 0 0 0 0 0 0 0 0 0 0 0 0 0 0 0 0 0 0 0 0 0 0 0 0 0 0 0 0 0
0 0 0 0 0 0 0 0 0 0 0 0 0 0 0 0 0 0 0 0 0 0 0 0 0 0 0 0 0 0 0 0 0 0 0 0 0 0 0 0 0 0 0
0 0 0 0 0 0 0 0 0 0 0 0 0 0 0 0 0 0 0 0 0 0 0 0 0 0 0 0 0 0 0 0 0 0 0 0 0 0 0 0 0 0 0
0 0 0 0 0 0 0 0 0 0 0 0 0 0 0 0 0 0 0 0 0 0 0 0 0 0 0 0 0 0 0 0 0 0 0 0 0 0 0 0 0 0 0
0 0 0 0 0 0 0 0 0 0 0 0 0 0 0 0 0 0 0 0 0 0 0 0 0 0 0 0 0 0 0 0 0 0 0 0 0 0 0 0 0 0 0
0 0 0 0 0 0 0 0 0 0 0 0 0 0 0 0 0 0 0 0 0 0 0 0 0 0 0 0 0 0 0 0 0 0 0 0 0 0 0 0 0 0 0
0 0 0 0 0 0 0 0 0 0 0 0 0 0 0 0 0 0 0 0 0 0 0 0 0 0 0 0 0 0 0 0 0 0 0 0 0 0 0 0 0 0 0
0 0 0 0 0 0 0 0 0 0 0 0 0 0 0 0 0 0 0 0 0 0 0 0 0 0 0 0 0 0 0 0 0 0 0 0 0 0 0 0 0 0 0
0 0 0 0 0 0 0 0 0 0 0 0 0 0 0 0 0 0 0 0 0 0 0 0 0 0 0 0 0 0 0 0 0 0 0 0 0 0 0 0 0 0 0
0 0 0 0 0 0 0 0 0 0 0 0 0 0 0 0 0 0 0 0 0 0 0 0 0 0 0 0 0 0 0 0 0 0 0 0 0 0 0 0 0 0 0
0 0 0 0 0 0 0 0 0 0 0 0 0 0 0 0 0 0 0 0 0 0 0 0 0 0 0 0 0 0 0 0 0 0 0 0 0 0 0 0 0 0 0
0 0 0 0 0 0 0 0 0 0 0 0 0 0 0 0 0 0 0 0 0 0 0 0 0 0 0 0 0 0 0 0 0 0 0 0 0 0 0 0 0 0 0
0 0 0 0 0 0 0 0 0 0 0 0 0 0 0 0 0 0 0 0 0 0 0 0 0 0 0 0 0 0 0 0 0 0 0 0 0 0 0 0 0 0 0
Wind_Speed_500mb
29 24 24 23 21 20 18 18 18 16 14 14 17 19 21 30 37 31 33 28 25 30 33 32 31 28 33 37 39 38 35 35 37 39 37 37 36 39 44 40 38 39 37
31 29 27 24 17 17 15 15 15 13 12 17 19 19 22 26 26 24 26 25 27 29 30 29 29 28 30 33 34 36 34 31 34 36 36 30 32 36 35 32 33 38 36
32 32 29 23 20 16 13 13 13 11 14 18 19 21 26 20 21 21 20 23 25 27 27 27 27 27 29 29 30 31 31 27 23 25 29 34 34 33 33 35 33 32 33
33 33 30 26 21 17 12 13 13 11 16 19 20 23 24 16 18 20 19 21 22 25 27 26 26 26 26 25 24 24 26 24 20 22 27 30 28 28 29 29 29 28 30
36 33 29 25 20 17 13 17 15 14 17 21 20 23 23 18 15 17 19 18 20 22 23 23 24 24 24 24 20 16 18 20 16 16 18 21 27 25 24 25 25 26 24
37 34 30 27 22 18 15 16 19 19 19 19 22 22 23 24 14 14 16 16 18 20 21 22 21 21 22 20 16 10 12 16 14 12 10 20 23 20 21 21 22 23 22
39 36 33 28 23 20 18 19 19 21 21 20 19 18 22 24 20 14 16 18 17 18 20 20 19 19 19 17 11 7 9 12 12 9 8 15 18 14 15 17 18 19 19
33 33 32 29 26 24 20 19 20 20 20 19 18 17 17 16 16 12 15 19 18 18 18 18 17 17 16 15 11 3 3 6 10 8 8 11 13 9 11 13 17 13 13
29 30 32 32 30 27 23 20 20 20 20 19 16 15 12 11 10 10 12 15 20 19 18 17 16 15 15 14 14 10 5 1 6 5 8 7 10 6 6 11 8 7 9
31 31 35 37 35 31 29 24 22 21 20 20 19 17 14 12 11 10 13 14 18 20 18 16 15 15 15 14 14 13 10 7 3 3 5 5 4 2 1 2 3 3 5
38 34 36 41 38 34 31 30 28 26 24 22 20 19 19 17 15 13 13 15 16 18 19 18 16 15 15 16 16 16 14 15 11 7 7 9 9 7 5 6 5 3 1
42 38 37 42 42 39 37 36 33 31 29 25 23 22 21 21 20 18 17 17 18 19 19 20 19 18 18 18 19 20 18 20 19 15 14 14 15 13 11 11 11 9 7
34 36 39 38 42 44 43 41 40 37 35 32 30 28 26 26 26 25 23 22 23 23 23 24 23 23 22 23 23 23 22 22 22 20 19 20 20 19 17 16 17 15 12
41 36 34 38 40 40 42 45 45 43 41 40 36 33 34 32 31 29 28 26 26 27 28 29 28 29 28 27 27 28 26 25 27 25 24 24 24 24 23 22 22 21 19
43 40 39 38 40 40 39 42 43 46 48 45 43 41 41 39 37 34 31 32 31 32 33 34 33 34 33 32 32 32 31 29 29 30 30 29 30 29 27 27 27 27 25
41 41 38 42 44 44 43 43 41 42 41 45 45 43 45 44 41 39 37 37 37 37 36 38 38 38 38 37 37 37 34 34 35 35 34 35 35 35 33 32 32 32 28
38 37 41 40 40 48 49 47 47 46 44 47 46 42 42 45 45 43 42 43 41 41 41 44 45 45 46 44 44 40 40 40 40 40 39 39 38 39 39 37 35 34 31
36 40 38 42 44 46 49 50 52 52 51 52 51 49 48 46 47 49 48 48 45 46 47 49 49 51 52 50 48 45 45 44 44 44 42 41 39 40 40 43 40 37 35
43 41 41 44 46 47 50 51 55 56 57 59 57 55 54 53 53 53 54 51 50 53 53 54 54 57 58 56 56 52 51 52 50 48 48 45 43 41 40 44 44 41 40
55 50 45 44 44 45 50 52 56 60 62 63 63 63 58 57 58 59 60 57 56 60 61 60 62 61 64 61 61 63 60 59 58 58 56 53 51 47 43 46 48 48 45
59 53 52 50 49 50 53 56 60 65 65 67 69 68 65 65 65 66 66 65 65 68 69 67 65 68 69 67 64 70 71 68 69 67 64 61 58 54 51 52 53 52 49
47 52 54 55 55 55 54 55 57 57 61 64 68 69 70 72 73 72 74 76 74 75 77 77 75 76 77 73 72 71 69 72 77 76 74 71 67 61 60 57 59 58 55
53 51 59 62 60 55 57 60 59 63 63 63 66 67 67 70 73 76 78 80 83 82 85 87 87 84 86 83 78 69 27 38 50 51 49 50 53 59 61 62 62 63 62
49 48 42 42 54 66 68 64 59 58 60 55 56 57 59 61 63 67 71 77 82 88 90 92 94 94 92 96 93 90 92 90 53 53 49 45 49 52 56 59 62 67 67
46 42 48 46 46 51 65 64 59 58 56 54 60 63 62 61 60 60 62 65 73 79 84 89 95 102 100 100 103 103 98 98 102 105 83 87 72 69 65 63 63 64 68
31 25 22 23 26 36 46 52 56 60 60 62 64 69 71 72 73 73 72 73 74 76 79 82 88 96 100 105 106 108 111 88 92 100 102 104 109 101 88 76 68 68 67
Wind_Direction_500mb
170 155 143 135 141 131 129 119 122 116 91 91 98 97 94 101 120 125 114 115 104 97 96 100 102 103 91 91 95 96 90 85 83 82 82 77 72 73 71 75 73 72 74
165 157 149 147 140 138 140 136 135 126 111 116 113 106 101 105 106 111 110 113 105 101 98 101 108 105 99 97 96 92 89 82 85 86 84 85 79 81 83 82 86 77 75
171 162 156 155 147 145 147 156 146 129 120 122 123 113 113 108 109 108 111 106 102 106 107 108 111 110 107 101 93 91 89 85 84 91 95 86 79 79 77 80 79 80 82
173 168 164 159 151 150 146 156 151 133 127 125 129 122 116 118 112 116 110 111 112 114 114 114 118 119 113 101 85 78 87 78 73 71 86 91 92 84 76 82 84 87 83
173 173 170 165 157 153 150 149 148 143 141 141 140 134 132 131 125 126 125 122 121 122 118 117 120 126 120 111 99 84 81 83 75 76 81 87 89 85 81 76 79 81 83
176 176 178 171 165 164 154 157 153 151 149 157 151 146 138 140 142 139 134 134 132 131 127 125 127 130 127 123 120 102 77 69 64 74 69 89 92 93 84 76 74 77 78
177 179 181 179 176 177 172 168 164 159 156 159 166 158 153 146 148 155 149 150 147 146 139 136 136 137 137 135 128 110 85 72 39 46 41 91 97 99 85 75 75 76 73
185 179 187 187 187 187 187 181 174 170 168 167 167 169 166 168 172 172 160 160 159 159 153 149 147 148 150 149 153 162 80 76 58 47 22 80 105 107 87 73 63 70 73
193 194 197 197 195 197 198 194 187 182 179 179 182 186 188 192 191 191 192 175 172 174 168 164 161 162 164 168 176 194 233 294 80 46 23 20 135 152 79 76 63 60 73
205 209 208 204 203 204 205 203 202 198 192 193 191 197 203 212 218 212 212 207 187 187 184 180 178 177 179 187 199 206 240 268 289 323 344 319 312 193 19 83 78 34 63
212 214 212 209 209 210 212 211 211 208 204 205 208 206 213 222 228 224 221 220 213 200 199 198 198 195 196 201 210 218 236 261 271 278 290 281 281 286 266 257 260 277 289
213 212 213 214 216 216 217 218 220 217 215 215 218 223 226 231 232 232 225 223 224 221 214 214 215 215 216 219 221 228 235 254 267 278 277 276 272 273 264 262 264 266 261
222 221 217 217 218 223 224 225 224 225 224 224 225 230 234 237 238 236 233 228 229 231 229 228 229 230 230 232 235 238 239 248 262 269 272 273 273 273 268 261 260 259 255
221 226 226 222 222 225 230 233 233 233 233 233 235 237 240 243 244 245 242 239 237 238 238 238 237 237 240 242 245 249 253 252 263 267 271 270 272 272 268 264 259 258 254
227 224 229 232 232 231 234 234 236 239 239 241 243 244 246 247 248 249 248 248 247 244 244 245 245 246 248 250 253 252 256 259 262 267 271 271 271 269 265 262 260 257 250
232 231 230 234 237 239 242 243 245 245 247 247 248 247 248 251 253 255 255 255 255 251 251 252 252 254 257 256 258 261 262 263 263 265 270 270 268 265 262 259 258 253 246
242 239 235 237 237 241 244 246 249 249 250 252 254 252 250 252 256 259 260 259 260 257 255 253 253 254 255 255 258 258 260 261 263 265 268 270 268 264 259 256 253 251 244
247 245 243 241 241 241 244 246 249 252 253 254 255 256 258 259 260 259 262 263 262 259 257 256 258 260 261 260 263 263 263 263 265 267 268 268 269 270 259 249 247 247 246
255 255 253 249 249 250 250 250 251 253 254 257 257 256 258 260 260 259 261 265 264 262 261 260 261 262 264 265 267 267 266 265 268 268 269 267 270 272 262 245 241 245 244
255 253 257 260 261 258 256 255 253 254 256 256 258 259 258 259 262 262 263 263 262 261 261 260 262 262 265 267 269 270 269 267 265 264 267 268 268 270 264 249 242 243 245
246 250 254 257 262 257 254 254 254 254 256 258 260 260 262 262 260 262 264 264 261 260 262 263 263 263 263 263 265 267 267 266 265 264 266 265 266 268 262 250 245 246 244
248 252 253 257 260 260 262 265 263 266 267 271 269 269 269 269 268 267 267 268 265 263 264 263 260 261 262 262 258 264 271 275 270 270 270 269 268 266 261 252 246 245 244
260 253 253 256 259 264 263 260 260 261 265 268 269 274 276 275 274 272 271 271 272 269 268 268 266 262 263 265 258 250 254 260 279 281 274 270 267 262 259 253 246 244 245
258 257 255 253 257 256 258 260 263 270 275 285 287 289 288 286 284 282 279 276 274 274 273 271 272 269 264 263 263 258 254 256 268 282 278 270 263 262 258 255 247 244 243
265 260 252 255 255 250 253 256 262 267 276 284 287 289 290 291 291 290 287 283 279 277 277 277 274 272 270 267 264 265 263 261 259 257 268 268 266 262 260 262 257 250 245
212 217 230 235 239 240 242 249 256 263 270 273 275 280 283 286 287 286 286 286 285 282 280 280 279 275 274 273 271 267 264 255 258 256 255 258 265 268 267 266 260 256 251
Wind_Speed_850mb
29 24 24 23 21 20 18 18 18 16 14 14 17 19 21 30 37 31 33 28 25 30 33 32 31 28 33 37 39 38 35 35 37 39 37 37 36 39 44 40 38 39 37
31 29 27 24 17 17 15 15 15 13 12 17 19 19 22 26 26 24 26 25 27 29 30 29 29 28 30 33 34 36 34 31 34 36 36 30 32 36 35 32 33 38 36
32 32 29 23 20 16 13 13 13 11 14 18 19 21 26 20 21 21 20 23 25 27 27 27 27 27 29 29 30 31 31 27 23 25 29 34 34 33 33 35 33 32 33
33 33 30 26 21 17 12 13 13 11 16 19 20 23 24 16 18 20 19 21 22 25 27 26 26 26 26 25 24 24 26 24 20 22 27 30 28 28 29 29 29 28 30
36 33 29 25 20 17 13 17 15 14 17 21 20 23 23 18 15 17 19 18 20 22 23 23 24 24 24 24 20 16 18 20 16 16 18 21 27 25 24 25 25 26 24
37 34 30 27 22 18 15 16 19 19 19 19 22 22 23 24 14 14 16 16 18 20 21 22 21 21 22 20 16 10 12 16 14 12 10 20 23 20 21 21 22 23 22
39 36 33 28 23 20 18 19 19 21 21 20 19 18 22 24 20 14 16 18 17 18 20 20 19 19 19 17 11 7 9 12 12 9 8 15 18 14 15 17 18 19 19
33 33 32 29 26 24 20 19 20 20 20 19 18 17 17 16 16 12 15 19 18 18 18 18 17 17 16 15 11 3 3 6 10 8 8 11 13 9 11 13 17 13 13
29 30 32 32 30 27 23 20 20 20 20 19 16 15 12 11 10 10 12 15 20 19 18 17 16 15 15 14 14 10 5 1 6 5 8 7 10 6 6 11 8 7 9
31 31 35 37 35 31 29 24 22 21 20 20 19 17 14 12 11 10 13 14 18 20 18 16 15 15 15 14 14 13 10 7 3 3 5 5 4 2 1 2 3 3 5
38 34 36 41 38 34 31 30 28 26 24 22 20 19 19 17 15 13 13 15 16 18 19 18 16 15 15 16 16 16 14 15 11 7 7 9 9 7 5 6 5 3 1
42 38 37 42 42 39 37 36 33 31 29 25 23 22 21 21 20 18 17 17 18 19 19 20 19 18 18 18 19 20 18 20 19 15 14 14 15 13 11 11 11 9 7
34 36 39 38 42 44 43 41 40 37 35 32 30 28 26 26 26 25 23 22 23 23 23 24 23 23 22 23 23 23 22 22 22 20 19 20 20 19 17 16 17 15 12
41 36 34 38 40 40 42 45 45 43 41 40 36 33 34 32 31 29 28 26 26 27 28 29 28 29 28 27 27 28 26 25 27 25 24 24 24 24 23 22 22 21 19
43 40 39 38 40 40 39 42 43 46 48 45 43 41 41 39 37 34 31 32 31 32 33 34 33 34 33 32 32 32 31 29 29 30 30 29 30 29 27 27 27 27 25
41 41 38 42 44 44 43 43 41 42 41 45 45 43 45 44 41 39 37 37 37 37 36 38 38 38 38 37 37 37 34 34 35 35 34 35 35 35 33 32 32 32 28
38 37 41 40 40 48 49 47 47 46 44 47 46 42 42 45 45 43 42 43 41 41 41 44 45 45 46 44 44 40 40 40 40 40 39 39 38 39 39 37 35 34 31
36 40 38 42 44 46 49 50 52 52 51 52 51 49 48 46 47 49 48 48 45 46 47 49 49 51 52 50 48 45 45 44 44 44 42 41 39 40 40 43 40 37 35
43 41 41 44 46 47 50 51 55 56 57 59 57 55 54 53 53 53 54 51 50 53 53 54 54 57 58 56 56 52 51 52 50 48 48 45 43 41 40 44 44 41 40
55 50 45 44 44 45 50 52 56 60 62 63 63 63 58 57 58 59 60 57 56 60 61 60 62 61 64 61 61 63 60 59 58 58 56 53 51 47 43 46 48 48 45
59 53 52 50 49 50 53 56 60 65 65 67 69 68 65 65 65 66 66 65 65 68 69 67 65 68 69 67 64 70 71 68 69 67 64 61 58 54 51 52 53 52 49
47 52 54 55 55 55 54 55 57 57 61 64 68 69 70 72 73 72 74 76 74 75 77 77 75 76 77 73 72 71 69 72 77 76 74 71 67 61 60 57 59 58 55
53 51 59 62 60 55 57 60 59 63 63 63 66 67 67 70 73 76 78 80 83 82 85 87 87 84 86 83 78 69 27 38 50 51 49 50 53 59 61 62 62 63 62
49 48 42 42 54 66 68 64 59 58 60 55 56 57 59 61 63 67 71 77 82 88 90 92 94 94 92 96 93 90 92 90 53 53 49 45 49 52 56 59 62 67 67
46 42 48 46 46 51 65 64 59 58 56 54 60 63 62 61 60 60 62 65 73 79 84 89 95 102 100 100 103 103 98 98 102 105 83 87 72 69 65 63 63 64 68
31 25 22 23 26 36 46 52 56 60 60 62 64 69 71 72 73 73 72 73 74 76 79 82 88 96 100 105 106 108 111 88 92 100 102 104 109 101 88 76 68 68 67
Wind_Direction_850mb
170 155 143 135 141 131 129 119 122 116 91 91 98 97 94 101 120 125 114 115 104 97 96 100 102 103 91 91 95 96 90 85 83 82 82 77 72 73 71 75 73 72 74
165 157 149 147 140 138 140 136 135 126 111 116 113 106 101 105 106 111 110 113 105 101 98 101 108 105 99 97 96 92 89 82 85 86 84 85 79 81 83 82 86 77 75
171 162 156 155 147 145 147 156 146 129 120 122 123 113 113 108 109 108 111 106 102 106 107 108 111 110 107 101 93 91 89 85 84 91 95 86 79 79 77 80 79 80 82
173 168 164 159 151 150 146 156 151 133 127 125 129 122 116 118 112 116 110 111 112 114 114 114 118 119 113 101 85 78 87 78 73 71 86 91 92 84 76 82 84 87 83
173 173 170 165 157 153 150 149 148 143 141 141 140 134 132 131 125 126 125 122 121 122 118 117 120 126 120 111 99 84 81 83 75 76 81 87 89 85 81 76 79 81 83
176 176 178 171 165 164 154 157 153 151 149 157 151 146 138 140 142 139 134 134 132 131 127 125 127 130 127 123 120 102 77 69 64 74 69 89 92 93 84 76 74 77 78
177 179 181 179 176 177 172 168 164 159 156 159 166 158 153 146 148 155 149 150 147 146 139 136 136 137 137 135 128 110 85 72 39 46 41 91 97 99 85 75 75 76 73
185 179 187 187 187 187 187 181 174 170 168 167 167 169 166 168 172 172 160 160 159 159 153 149 147 148 150 149 153 162 80 76 58 47 22 80 105 107 87 73 63 70 73
193 194 197 197 195 197 198 194 187 182 179 179 182 186 188 192 191 191 192 175 172 174 168 164 161 162 164 168 176 194 233 294 80 46 23 20 135 152 79 76 63 60 73
205 209 208 204 203 204 205 203 202 198 192 193 191 197 203 212 218 212 212 207 187 187 184 180 178 177 179 187 199 206 240 268 289 323 344 319 312 193 19 83 78 34 63
212 214 212 209 209 210 212 211 211 208 204 205 208 206 213 222 228 224 221 220 213 200 199 198 198 195 196 201 210 218 236 261 271 278 290 281 281 286 266 257 260 277 289
213 212 213 214 216 216 217 218 220 217 215 215 218 223 226 231 232 232 225 223 224 221 214 214 215 215 216 219 221 228 235 254 267 278 277 276 272 273 264 262 264 266 261
222 221 217 217 218 223 224 225 224 225 224 224 225 230 234 237 238 236 233 228 229 231 229 228 229 230 230 232 235 238 239 248 262 269 272 273 273 273 268 261 260 259 255
221 226 226 222 222 225 230 233 233 233 233 233 235 237 240 243 244 245 242 239 237 238 238 238 237 237 240 242 245 249 253 252 263 267 271 270 272 272 268 264 259 258 254
227 224 229 232 232 231 234 234 236 239 239 241 243 244 246 247 248 249 248 248 247 244 244 245 245 246 248 250 253 252 256 259 262 267 271 271 271 269 265 262 260 257 250
232 231 230 234 237 239 242 243 245 245 247 247 248 247 248 251 253 255 255 255 255 251 251 252 252 254 257 256 258 261 262 263 263 265 270 270 268 265 262 259 258 253 246
242 239 235 237 237 241 244 246 249 249 250 252 254 252 250 252 256 259 260 259 260 257 255 253 253 254 255 255 258 258 260 261 263 265 268 270 268 264 259 256 253 251 244
247 245 243 241 241 241 244 246 249 252 253 254 255 256 258 259 260 259 262 263 262 259 257 256 258 260 261 260 263 263 263 263 265 267 268 268 269 270 259 249 247 247 246
255 255 253 249 249 250 250 250 251 253 254 257 257 256 258 260 260 259 261 265 264 262 261 260 261 262 264 265 267 267 266 265 268 268 269 267 270 272 262 245 241 245 244
255 253 257 260 261 258 256 255 253 254 256 256 258 259 258 259 262 262 263 263 262 261 261 260 262 262 265 267 269 270 269 267 265 264 267 268 268 270 264 249 242 243 245
246 250 254 257 262 257 254 254 254 254 256 258 260 260 262 262 260 262 264 264 261 260 262 263 263 263 263 263 265 267 267 266 265 264 266 265 266 268 262 250 245 246 244
248 252 253 257 260 260 262 265 263 266 267 271 269 269 269 269 268 267 267 268 265 263 264 263 260 261 262 262 258 264 271 275 270 270 270 269 268 266 261 252 246 245 244
260 253 253 256 259 264 263 260 260 261 265 268 269 274 276 275 274 272 271 271 272 269 268 268 266 262 263 265 258 250 254 260 279 281 274 270 267 262 259 253 246 244 245
258 257 255 253 257 256 258 260 263 270 275 285 287 289 288 286 284 282 279 276 274 274 273 271 272 269 264 263 263 258 254 256 268 282 278 270 263 262 258 255 247 244 243
265 260 252 255 255 250 253 256 262 267 276 284 287 289 290 291 291 290 287 283 279 277 277 277 274 272 270 267 264 265 263 261 259 257 268 268 266 262 260 262 257 250 245
212 217 230 235 239 240 242 249 256 263 270 273 275 280 283 286 287 286 286 286 285 282 280 280 279 275 274 273 271 267 264 255 258 256 255 258 265 268 267 266 260 256 251